User: anonymous   Login
Location: Dompnac
(44.5644°N, 4.1026°E)
Time: 14:25:40
(UTC+00:00)
Language:

Spot 2 Rocket - Orbit

View from above orbital plane
View from above orbital plane
View from above satellite
View from above satellite

Ground track
Ground track

The orbit data is extracted from the following two-line orbital elements,

1 20443U 90005H   20333.43493434  .00000042  00000-0  28417-4 0  9994
2 20443  98.5572  34.8259 0009957 209.1639 150.8993 14.38106680615949
Epoch (UTC): 28 November 2020 10:26:18
Eccentricity: 0.0009957
inclination: 98.5572°
perigee height: 757 km
apogee height: 772 km
right ascension of ascending node: 34.8259°
argument of perigee: 209.1639°
revolutions per day: 14.38106680
mean anomaly at epoch: 150.8993°
orbit number at epoch: 61594

The dashed part of the orbit path shows where the satellite is in the earth's shadow,  

DLR